GFSFLT2_925_rhum_003.txt.gz
RH
63 64 61 58 54 58 64 64 66 62 57 56 58 60 68 72 69 70 68 66 71 76 78 80 77 76 72
69 65 58 60 65 74 72 62 58 61 59 60 59 59 61 70 78 75 79 83 71 67 73 69 70 68 66
69 63 67 77 84 67 58 52 53 57 60 62 63 66 66 69 70 71 70 73 70 68 78 74 74 74 74
76 90 73 67 62 56 57 60 63 66 69 67 65 63 64 64 65 67 69 69 68 68 69 73 73 68 64
83 73 67 57 58 63 67 71 74 68 67 67 64 67 71 70 69 69 72 73 74 75 79 78 77 71 66
77 63 57 61 66 76 86 80 78 64 65 75 72 72 70 69 68 70 71 72 73 76 76 78 74 70 79
63 62 68 74 98 91 83 80 78 76 78 80 72 71 67 66 67 70 72 74 78 84 87 83 76 75 74
70 79 91 82 76 77 86 92 85 74 66 80 70 70 69 70 70 73 75 76 76 78 75 74 79 81 82
93 84 74 76 81 88 88 90 80 70 70 73 70 73 75 74 72 69 75 80 80 79 76 74 73 72 68
70 68 73 76 81 78 87 94 90 86 62 84 83 81 79 58 59 72 71 73 78 80 85 87 85 86 93
73 74 75 73 76 87 94 98 95 91 81 93 91 88 88 87 73 70 72 85 94 90 90 95 98 99 98
77 76 80 90 93 95 98 100 100 98 95 99 96 96 93 87 80 72 74 87 92 98 98 99 99 99 99
82 88 90 94 98 98 95 96 97 95 94 93 99 98 97 93 91 86 85 85 92 98 99 99 99 99 99
88 90 89 89 91 93 96 95 96 88 84 88 97 99 96 94 95 92 89 94 93 98 99 99 100 100 100
93 93 90 89 92 92 95 95 92 89 88 87 91 95 96 93 93 84 81 90 91 98 99 97 96 100 100
98 98 96 95 94 94 93 94 93 90 90 92 93 94 81 69 65 84 90 88 92 96 99 97 88 87 100
100 99 98 96 94 94 93 93 91 90 91 91 96 94 90 89 69 69 95 95 96 88 96 98 97 98 100

GFSFLT2_925_rhum_006.txt.gz
RH
44 46 49 49 48 52 54 61 59 49 50 51 55 59 63 67 67 65 65 66 68 68 68 73 78 81 86
54 52 51 53 60 60 56 49 45 43 48 55 60 62 63 64 68 72 74 75 79 75 77 72 70 73 75
54 56 60 68 63 56 48 45 47 50 52 55 59 62 65 65 64 63 66 68 72 72 76 75 69 69 65
63 81 72 60 52 46 47 52 55 58 60 60 60 60 61 58 62 66 67 68 69 71 72 72 77 75 74
92 73 62 50 45 50 58 64 66 62 60 59 53 59 64 64 63 63 64 66 69 75 79 79 76 77 74
76 60 48 47 55 65 79 76 73 59 59 67 64 65 63 62 60 62 66 68 72 72 80 85 82 76 74
58 51 55 62 86 94 77 75 73 71 71 71 63 61 61 61 62 66 70 74 78 80 80 82 85 84 80
59 68 80 90 77 74 79 81 80 68 62 71 63 62 61 65 66 69 72 77 82 86 87 84 83 77 76
76 86 70 69 73 79 88 87 79 68 65 63 61 69 69 68 59 54 60 70 79 91 96 95 92 88 84
63 61 61 63 67 68 79 94 88 85 62 76 82 76 75 57 56 68 67 69 70 79 95 99 99 99 100
62 62 62 62 67 79 88 97 95 91 80 90 91 88 87 84 72 70 69 69 72 78 87 92 95 99 100
66 66 70 83 87 91 96 99 100 98 95 100 96 95 93 87 79 71 70 77 81 88 99 99 97 94 92
75 80 81 84 88 91 90 92 94 94 94 95 98 98 97 93 88 85 84 84 85 94 98 99 99 100 99
80 81 81 80 83 86 91 90 91 88 84 87 90 98 96 93 91 88 88 91 83 91 98 98 99 100 100
89 88 86 84 88 88 91 93 91 86 86 85 86 93 96 97 96 87 80 74 80 94 99 95 89 99 100
94 94 94 93 92 91 91 91 90 87 86 86 92 90 81 74 71 79 75 79 88 94 98 98 89 90 99
96 96 96 95 92 92 91 91 89 88 88 89 92 93 93 88 69 70 86 94 96 91 90 97 98 98 100

GFSFLT2_925_rhum_009.txt.gz
RH
46 48 49 49 48 52 64 58 57 51 48 48 51 55 60 64 65 67 68 67 69 72 80 74 76 71 66
52 53 53 50 58 70 63 53 51 44 47 52 55 58 60 62 64 69 66 71 72 78 76 75 73 73 73
56 54 58 69 75 59 52 48 46 49 52 54 57 59 62 62 62 61 62 62 67 69 71 75 72 71 74
66 73 84 72 57 51 48 52 58 61 63 60 60 59 59 56 61 64 66 66 66 67 69 72 78 81 78
84 92 67 57 52 52 58 67 72 72 63 64 59 62 65 63 62 62 63 64 68 73 78 78 85 81 79
90 67 64 52 57 69 80 93 80 65 64 68 68 70 66 64 60 61 64 68 71 76 82 82 86 87 80
62 57 58 63 76 91 86 78 78 74 73 77 70 67 63 62 61 63 70 73 76 82 88 90 89 90 89
57 62 72 93 98 86 76 79 80 77 71 77 68 68 65 66 68 70 71 69 66 69 74 81 94 98 94
65 74 71 64 65 68 81 85 85 74 72 74 70 76 76 74 68 59 59 65 73 73 76 76 81 98 100
80 66 60 60 61 63 71 96 92 88 69 79 89 87 85 64 61 72 72 71 71 75 73 74 87 100 100
66 62 63 64 68 78 86 95 96 92 84 90 94 92 93 87 77 74 73 72 74 77 84 84 85 95 100
67 69 73 81 85 87 89 94 97 98 94 99 96 97 94 90 84 72 73 78 83 88 90 93 94 97 99
79 82 83 83 86 89 89 89 91 91 92 93 99 98 98 94 91 88 80 82 87 92 88 100 99 100 99
87 87 86 86 87 89 94 92 95 89 86 87 90 95 97 96 95 92 84 89 88 90 94 99 96 95 100
94 94 92 90 91 91 93 96 95 88 86 85 86 88 93 100 96 88 86 86 80 84 94 96 90 87 99
97 97 96 95 94 95 93 94 94 90 91 88 91 94 84 78 74 83 83 81 84 91 96 98 88 82 89
98 98 98 97 93 94 94 94 91 88 87 88 94 95 93 89 69 73 93 95 96 93 87 94 97 89 96

GFSFLT2_925_rhum_012.txt.gz
RH
50 54 54 55 54 54 60 67 68 57 53 54 52 56 59 64 66 63 68 69 75 76 80 80 82 78 80
62 61 61 58 62 71 74 63 56 53 50 53 57 60 61 64 65 70 72 73 73 80 77 70 69 72 73
68 66 68 75 88 69 62 55 51 54 56 58 63 65 65 64 63 63 65 68 66 67 71 75 73 77 76
77 84 84 93 67 65 60 58 64 69 72 74 66 66 66 62 68 70 70 69 68 67 69 73 76 75 73
83 88 86 70 72 60 64 66 75 82 76 69 70 69 71 72 74 71 71 69 68 69 72 72 77 83 88
98 71 74 62 64 67 75 86 90 72 72 76 73 75 78 75 71 69 70 69 69 74 77 78 81 83 85
72 64 63 66 72 89 96 99 86 79 80 83 78 77 73 72 73 73 73 77 78 78 74 73 75 76 86
64 64 68 78 95 87 77 78 81 81 78 88 75 76 76 77 76 78 79 76 69 67 72 77 77 78 80
68 76 77 71 67 69 78 81 84 79 79 82 81 84 84 82 70 66 69 66 76 76 79 78 79 77 78
84 67 69 66 68 70 74 93 91 88 72 92 90 93 84 67 64 73 74 78 77 78 77 80 83 88 95
70 71 70 72 76 80 86 94 96 93 84 93 94 93 94 88 79 77 76 76 77 80 86 89 90 91 96
72 76 82 87 88 87 87 90 91 100 95 100 97 98 94 90 84 73 75 79 84 85 90 91 92 93 91
91 91 89 89 93 96 91 96 96 96 93 93 98 98 98 94 92 89 82 84 87 88 86 93 93 95 96
90 92 95 96 94 96 98 98 98 92 85 86 89 93 97 96 96 92 88 92 87 87 89 94 92 90 95
98 97 96 95 95 94 97 98 96 92 90 88 88 90 94 98 97 90 88 89 88 91 93 92 90 91 95
99 99 98 98 97 97 96 98 96 92 92 91 92 94 87 80 80 92 96 93 94 90 91 96 92 83 84
100 99 99 98 95 96 96 96 93 91 90 92 97 96 94 89 70 72 91 96 94 93 88 89 94 91 89

GFSFLT2_925_rhum_015.txt.gz
RH
59 64 64 62 60 58 68 74 68 62 61 60 59 60 62 64 64 64 67 69 77 79 76 79 76 77 79
72 72 69 66 71 77 80 74 66 60 57 59 62 65 66 70 69 68 66 73 85 76 75 68 67 79 78
77 72 75 80 86 88 75 70 63 61 60 65 69 75 73 71 70 69 70 73 73 69 74 73 76 76 76
76 84 86 89 77 75 72 65 66 66 71 78 78 72 71 71 74 76 78 78 75 73 76 80 83 80 77
89 90 89 70 74 68 71 70 74 80 80 75 72 75 75 76 76 79 82 77 74 74 79 81 86 86 87
89 85 80 71 69 71 77 84 88 76 77 83 79 80 80 80 80 77 76 79 80 80 80 80 79 83 86
84 81 77 72 71 88 98 97 88 83 82 84 80 81 78 77 76 79 81 82 82 79 79 77 75 77 78
76 73 71 85 94 83 79 82 83 79 78 85 78 78 78 80 80 81 81 81 77 73 73 77 79 78 80
72 79 81 74 74 76 81 86 86 78 79 83 80 88 84 84 69 64 74 73 74 78 80 82 80 80 80
79 70 63 67 77 77 79 93 94 89 68 85 91 92 87 67 66 71 74 79 82 80 80 80 82 84 87
65 70 74 79 84 84 89 97 98 94 84 92 94 94 94 90 82 78 78 79 78 81 84 86 90 92 90
77 82 88 92 89 93 92 93 92 99 96 100 96 98 94 90 85 75 75 81 86 90 90 92 93 94 92
88 90 94 94 94 98 88 94 94 91 93 92 100 100 99 94 91 89 85 84 87 91 85 91 93 96 97
95 96 98 98 96 97 100 99 99 92 81 89 93 96 97 97 98 92 87 93 87 92 93 90 91 94 95
100 100 99 98 98 97 100 99 97 92 91 89 87 93 97 100 96 91 90 90 90 92 96 96 90 89 91
100 100 100 100 100 98 97 99 96 92 93 92 94 96 89 85 91 96 95 95 93 95 95 97 92 85 87
100 100 100 100 95 98 97 96 93 91 91 93 97 96 94 89 69 72 95 97 96 95 94 95 95 91 89

GFSFLT2_925_rhum_018.txt.gz
RH
58 59 66 64 61 63 72 67 70 74 71 69 68 68 68 68 68 68 69 76 76 74 80 81 79 78 77
70 68 71 70 69 79 70 70 75 73 71 69 68 70 72 75 75 70 70 71 71 74 73 73 68 75 69
78 74 75 72 80 83 80 74 69 69 67 69 72 78 79 75 74 74 74 75 74 73 72 72 76 79 76
74 76 79 84 88 77 75 70 71 72 75 80 80 78 74 76 77 78 80 80 81 78 75 81 84 81 84
77 89 89 81 81 77 76 75 78 81 77 78 74 81 76 82 79 78 84 85 79 76 78 81 82 88 86
84 95 88 82 80 80 81 90 89 74 81 83 80 82 78 79 82 84 80 79 80 79 83 84 86 84 85
82 85 86 80 78 86 98 97 89 86 84 84 80 82 77 78 76 80 82 84 84 83 77 82 84 88 98
80 77 75 82 95 88 81 85 87 83 80 84 76 79 78 76 79 83 84 84 83 79 76 74 75 76 77
75 79 82 80 73 80 85 91 88 82 82 85 81 80 78 80 70 62 78 77 74 77 80 80 80 80 81
78 71 61 60 79 81 84 95 96 88 70 82 88 92 83 69 68 66 73 75 83 84 83 81 81 81 84
65 63 68 78 82 81 86 98 100 96 88 95 93 94 95 91 82 80 79 79 78 81 84 86 88 89 90
79 85 88 87 83 86 86 92 95 99 91 100 95 99 95 91 86 76 76 80 85 91 91 92 94 93 88
94 94 95 92 91 92 91 92 96 91 93 92 97 98 99 94 91 90 88 83 86 92 88 86 86 96 98
94 98 100 99 99 98 100 100 100 95 87 89 94 97 97 98 98 93 88 93 87 91 94 96 98 99 98
100 100 99 99 100 100 100 100 98 93 92 88 88 94 99 100 96 92 91 91 90 94 97 96 94 95 97
100 100 100 100 100 100 98 99 97 93 94 93 94 96 89 83 90 97 95 96 93 94 98 97 92 86 89
100 100 100 100 97 100 98 97 94 92 93 93 97 96 94 89 69 72 95 98 96 94 94 94 95 89 90